Volver al catálogo

THOR ABLESTAR R/B

ActivoLEO
NORAD 47·ROCKET BODY·🇺🇸 United States

Lanzado Jun 22, 1960 desde Cape Canaveral Space Force Station

Loading…

Próximos Pases (próximas 24 horas)

TLE

ActualizadoSource: Space-Track

Época: Sep 14, 2026, 03:59 UTC

1 00047U 60007C   26257.16614140  .00000374  00000-0  10478-3 0  9996
2 00047  66.6648 167.4327 0210834  71.8208 290.5726 14.45386314463668

Sigue THOR ABLESTAR R/B en tiempo real con AllMySat

Download on the App Store